Location: Bondula
(6.3703°N, 10.6756°W)
Time: 00:45:40
(UTC+00:00)

Daily predictions for brighter satellites

Satellite Brightness Start Highest point End
(mag) Time Altitude Azimuth Time Altitude Azimuth Time Altitude Azimuth
CZ-3B R/B 4.0 04:17:45 23° NE 04:17:45 23° NE 04:20:55 10° ENE
Ariane H10+ 3.7 04:21:55 62° SSE 04:21:55 62° SSE 04:25:53 10° ESE
Centaur AC-119 3.9 04:24:08 42° ENE 04:24:08 42° ENE 04:31:40 10° ESE
ARIANE 5 DEB (SYLDA) 4.3 04:24:41 56° S 04:24:41 56° S 04:29:39 10° ESE
Mugunghwa Rocket 4.0 04:30:56 71° NNW 04:30:56 71° NNW 04:37:57 10° ENE
CZ-2C R/B 3.1 04:30:44 10° NNE 04:35:41 54° ESE 04:40:29 10° S
ARIANE 5 DEB (SYLDA) 4.4 04:38:20 31° SSE 04:38:20 31° SSE 04:40:25 10° ESE
ISS -1.4 04:41:55 24° E 04:41:55 24° E 04:43:44 10° ENE
Cosmos 1953 4.4 04:50:32 10° NNE 04:53:54 27° E 04:57:16 10° SE
ARIANE 5 R/B 4.2 04:53:13 33° SW 04:55:28 51° SSE 05:23:34 10° E
Cosmos 1844 Rocket 4.4 05:00:09 17° SSW 05:00:09 17° SSW 05:01:40 10° SSW
Meteor 1-31 Rocket 2.6 04:56:08 10° NNE 04:59:54 84° ESE 05:03:43 10° S
Cosmos 1603 4.4 04:55:08 10° S 05:00:33 53° ESE 05:05:59 10° NNE
H-II Stage 2 4.0 05:00:03 35° NW 05:03:29 85° NNE 06:04:28 10° ESE
Cosmos 1470 2.6 05:03:36 41° N 05:04:52 87° E 05:08:44 10° S
Cosmos 1758 3.2 05:03:23 34° N 05:05:05 89° W 05:09:10 10° S
Cosmos 2181 Rocket 4.2 05:04:25 40° WNW 05:05:16 42° W 05:11:00 10° SSW
CZ-4B R/B 2.4 05:03:48 10° N 05:07:28 77° W 05:11:03 10° SSW
GPS 2-05 Rocket1 3.8 05:11:45 28° NE 05:11:47 28° NE 05:14:12 10° E
BLOCK DM-SL R/B 3.4 05:11:44 16° S 05:12:40 18° SSE 05:16:05 10° ESE
Cosmos 1484 Rocket 3.9 05:11:44 10° NNE 05:15:28 46° E 05:19:17 10° S
GPS 2-15 Rocket1 4.4 05:18:01 23° NNW 05:18:53 24° NNW 05:22:42 10° NE
Okean 1-7 Rocket 3.8 05:15:40 10° SSW 05:19:52 44° W 05:24:05 10° NNW
H-2A R/B 4.0 05:17:56 14° SW 05:21:13 21° S 05:31:40 10° SE
Milstar 3 Cent rocket 4.4 05:20:44 11° NNW 05:21:23 11° NNW 05:23:04 10° N
Cosmos 962 Rocket 4.4 05:16:14 10° S 05:22:26 73° W 05:28:41 10° N
ALOS 4.3 05:18:38 10° NE 05:22:43 31° E 05:26:49 10° SSE
Cosmos 1850 Rocket 4.3 05:20:17 10° SW 05:25:06 39° WNW 05:29:54 10° N
Aurora 2 Rocket 4.0 05:21:49 25° WNW 05:25:08 39° NNW 05:30:12 10° NE
Stardust Del rocket 4.4 05:20:39 22° WNW 05:25:44 65° NNE 05:29:47 10° E
PSLV R/B 4.0 05:22:18 10° S 05:26:15 53° WSW 05:30:11 10° NNW
Cosmos 2278 Rocket 2.1 05:24:52 10° NNW 05:30:30 80° WSW 05:36:09 10° SSE
Milstar 3 4.5 05:27:44 13° NW 05:30:39 16° NNW 05:34:38 10° NNE
Cosmos 44 4.0 05:27:24 10° N 05:31:33 47° ENE 05:35:51 10° SE
KM-V1 4.3 05:32:19 25° NNW 05:32:19 25° NNW 05:34:15 10° NE
Cosmos 1943 3.3 05:26:48 10° SSW 05:32:30 80° ESE 05:38:11 10° NNE
KORONAS-FOTON 3.6 05:31:01 10° S 05:34:46 68° W 05:38:30 10° N
Cosmos 2228 3.1 05:31:00 10° N 05:35:12 75° E 05:39:27 10° S
Cosmos 292 Rocket 4.0 05:30:48 10° NNW 05:35:23 46° WSW 05:40:01 10° S
Helios 1A Rocket 3.5 05:35:04 10° NNE 05:39:08 62° ESE 05:43:12 10° S
Cosmos 921 Rocket 4.0 05:40:15 18° WNW 05:41:54 23° W 05:45:14 10° SSW
Cosmos 1437 Rocket 3.9 05:40:41 10° SW 05:43:38 21° W 05:46:32 10° NNW
Meteor PRIRODA 4.4 05:41:38 10° NNW 05:44:54 31° WNW 05:48:11 10° SW
Cosmos 1602 Rocket 3.8 05:40:49 10° S 05:45:10 71° E 05:49:28 10° N
Cosmos 1726 Rocket 3.4 05:42:35 10° N 05:46:53 79° W 05:51:14 10° S
Longmarch 3A Rocket 3.4 05:48:17 10° NW 05:48:17 10° NW 05:48:38 10° NNW
Ariane H10 1.3 05:50:03 15° WSW 05:51:22 51° SSE 05:55:29 10° E
ATLAS 3B R/B 3.4 05:45:33 10° NNW 05:52:19 59° ENE 05:59:20 10° SE
Hubble Space Telescope 1.3 05:48:23 10° SW 05:52:27 59° SSE 05:56:29 10° ENE
ASC 2 Rocket 3.9 05:53:23 10° SW 05:57:17 42° SSE 06:01:16 10° E
Meteor 2-5 Rocket 4.3 05:53:16 10° SSW 05:58:24 35° W 06:03:37 10° NNW
Cosmos 864 Rocket 4.4 05:53:37 10° S 05:59:46 77° W 06:05:57 10° N
CENTAUR R/B 3.4 05:52:57 10° NNW 06:01:40 83° ENE 06:10:07 10° SSE
SJ-12 4.2 05:58:38 10° N 06:02:33 44° WNW 06:06:30 10° SSW
ARIANE DEB (SPELDA) 2.7 06:01:18 10° WSW 06:03:40 32° S 06:05:53 10° ESE
Atlas Centaur 2 4.4 06:01:56 10° S 06:05:28 18° SE 06:09:32 10° E
GPS 2-14 Rocket1 3.5 06:03:12 10° NW 06:06:47 39° NNE 06:10:20 10° E
Cosmos 1726 2.1 06:06:47 10° NNW 06:10:24 60° W 06:14:04 10° S
Nadezhda 3 Rocket 4.5 06:07:08 10° NNW 06:12:54 39° W 06:18:37 10° SSW
BLOCK DM-SL R/B 4.1 06:08:06 10° WSW 06:13:34 44° S 06:17:11 10° ESE
